| time (UTC) | temp F | wind direction | speed knots | gust knots | rain 1hr in | rain 24hr in | rain mn in | humidity % | barometer mb |
| 20260508074509 | 48 | 192 | 4.3 | 6.1 | 0.00 | 0.00 | 0.00 | 52 | 1021.7 |
| 20260508073013 | 48 | 198 | 1.7 | 6.1 | 0.00 | 0.00 | 0.00 | 50 | 1021.6 |
| 20260508071510 | 48 | 355 | 0.0 | 1.7 | 0.00 | 0.00 | 0.00 | 65 | 1021.5 |
| 20260508070010 | 49 | 360 | 0.0 | 0.9 | 0.00 | 0.00 | 0.00 | 62 | 1021.5 |
| 20260508064510 | 51 | 355 | 0.0 | 0.9 | 0.00 | 0.00 | 0.00 | 55 | 1021.3 |
| 20260508063010 | 48 | 355 | 0.0 | 2.6 | 0.00 | 0.00 | 0.00 | 60 | 1021.3 |
| 20260508061510 | 46 | 355 | 0.0 | 0.9 | 0.00 | 0.00 | 0.00 | 63 | 1021.2 |
| 20260508060012 | 44 | 355 | 0.0 | 2.6 | 0.00 | 0.00 | 0.00 | 64 | 1021.1 |
| 20260508054518 | 42 | 355 | 0.0 | 2.6 | 0.00 | 0.00 | 0.00 | 68 | 1021.1 |
| 20260508053010 | 40 | 355 | 0.0 | 4.3 | 0.00 | 0.00 | 0.00 | 71 | 1021.0 |
| 20260508051511 | 39 | 355 | 0.0 | 4.3 | 0.00 | 0.00 | 0.00 | 76 | 1020.7 |
| 20260508050012 | 37 | 355 | 0.9 | 4.3 | 0.00 | 0.00 | 0.00 | 79 | 1020.8 |
| 20260508044510 | 36 | 355 | 0.9 | 4.3 | 0.00 | 0.00 | 0.00 | 81 | 1020.8 |
| 20260508041514 | 35 | 355 | 0.9 | 3.5 | 0.00 | 0.00 | 0.00 | 81 | 1020.5 |
| 20260508040009 | 35 | 355 | 1.7 | 5.2 | 0.00 | 0.00 | 0.00 | 82 | 1020.4 |
| 20260508034511 | 35 | 355 | 0.0 | 5.2 | 0.00 | 0.00 | 0.00 | 82 | 1020.2 |
| 20260508033013 | 35 | 355 | 1.7 | 7.8 | 0.00 | 0.00 | 0.00 | 82 | 1020.1 |
| 20260508031512 | 34 | 355 | 1.7 | 5.2 | 0.00 | 0.00 | 0.00 | 83 | 1020.1 |
| 20260508030009 | 34 | 360 | 0.9 | 4.3 | 0.00 | 0.00 | 0.00 | 84 | 1019.9 |
| 20260508024510 | 34 | 5 | 3.5 | 7.0 | 0.00 | 0.00 | 0.00 | 85 | 1019.8 |
| 20260508023009 | 33 | 360 | 2.6 | 5.2 | 0.00 | 0.00 | 0.00 | 85 | 1019.8 |
| 20260508021510 | 33 | 360 | 0.9 | 4.3 | 0.00 | 0.00 | 0.00 | 85 | 1019.7 |
| 20260508020009 | 34 | 5 | 2.6 | 4.3 | 0.00 | 0.00 | 0.00 | 84 | 1019.6 |
| 20260508014509 | 33 | 5 | 0.9 | 5.2 | 0.00 | 0.00 | 0.00 | 84 | 1019.6 |
| 20260508013012 | 34 | 5 | 3.5 | 5.2 | 0.00 | 0.00 | 0.00 | 84 | 1019.4 |
| 20260508011509 | 34 | 5 | 0.9 | 5.2 | 0.00 | 0.00 | 0.00 | 84 | 1019.4 |
| 20260508010021 | 34 | 5 | 1.7 | 4.3 | 0.00 | 0.00 | 0.00 | 84 | 1019.4 |
| 20260508004518 | 34 | 5 | 0.9 | 4.3 | 0.00 | 0.00 | 0.00 | 84 | 1019.5 |
| 20260508003011 | 34 | 5 | 0.9 | 5.2 | 0.00 | 0.00 | 0.00 | 83 | 1019.5 |
| 20260508001509 | 34 | 11 | 1.7 | 5.2 | 0.00 | 0.00 | 0.00 | 83 | 1019.4 |
| 20260508000009 | 35 | 19 | 1.7 | 5.2 | 0.00 | 0.00 | 0.00 | 82 | 1019.4 |
| 20260507234509 | 35 | 25 | 0.9 | 5.2 | 0.00 | 0.00 | 0.00 | 82 | 1019.4 |
| 20260507233010 | 35 | 35 | 0.9 | 2.6 | 0.00 | 0.00 | 0.00 | 81 | 1019.5 |
| 20260507231511 | 35 | 35 | 0.0 | 4.3 | 0.00 | 0.00 | 0.00 | 81 | 1019.5 |
| 20260507230010 | 35 | 40 | 1.7 | 5.2 | 0.00 | 0.00 | 0.00 | 80 | 1019.4 |
| 20260507224514 | 36 | 42 | 2.6 | 4.3 | 0.00 | 0.00 | 0.00 | 79 | 1019.4 |
| 20260507223010 | 36 | 43 | 1.7 | 4.3 | 0.00 | 0.00 | 0.00 | 78 | 1019.4 |
| 20260507221502 | 37 | 44 | 0.9 | 3.5 | 0.00 | 0.00 | 0.00 | 77 | 1019.3 |
| 20260507220009 | 38 | 45 | 0.0 | 2.6 | 0.00 | 0.00 | 0.00 | 76 | 1019.2 |
| 20260507214513 | 38 | 46 | 0.0 | 2.6 | 0.00 | 0.00 | 0.00 | 74 | 1019.3 |
| 20260507213009 | 39 | 47 | 1.7 | 3.5 | 0.00 | 0.00 | 0.00 | 72 | 1019.1 |
| 20260507211509 | 40 | 148 | 0.0 | 1.7 | 0.00 | 0.00 | 0.00 | 71 | 1019.2 |
| 20260507210010 | 41 | 150 | 0.0 | 1.7 | 0.00 | 0.00 | 0.00 | 69 | 1019.0 |
| 20260507204510 | 42 | 150 | 0.0 | 0.0 | 0.00 | 0.00 | 0.00 | 67 | 1018.8 |
| 20260507203010 | 43 | 150 | 0.0 | 0.0 | 0.00 | 0.00 | 0.00 | 65 | 1018.8 |
| 20260507201512 | 44 | 150 | 0.0 | 0.0 | 0.00 | 0.00 | 0.00 | 63 | 1018.7 |
| 20260507200010 | 45 | 150 | 0.0 | 0.0 | 0.00 | 0.00 | 0.00 | 60 | 1018.7 |
| 20260507194510 | 45 | 150 | 0.0 | 0.0 | 0.00 | 0.00 | 0.00 | 58 | 1018.5 |
| 20260507193009 | 46 | 150 | 0.0 | 5.2 | 0.00 | 0.00 | 0.00 | 54 | 1018.4 |
| 20260507191510 | 47 | 160 | 3.5 | 7.8 | 0.00 | 0.00 | 0.00 | 51 | 1018.2 |
| 20260507190010 | 47 | 134 | 2.6 | 7.0 | 0.00 | 0.00 | 0.00 | 49 | 1018.2 |
| 20260507184509 | 48 | 153 | 4.3 | 8.7 | 0.00 | 0.00 | 0.00 | 42 | 1018.1 |
| 20260507183021 | 48 | 155 | 3.5 | 8.7 | 0.00 | 0.00 | 0.00 | 42 | 1017.9 |
| 20260507181509 | 49 | 151 | 6.1 | 11.3 | 0.00 | 0.00 | 0.00 | 36 | 1017.7 |
| 20260507180009 | 49 | 157 | 7.0 | 12.2 | 0.00 | 0.00 | 0.00 | 36 | 1017.6 |
| 20260507174512 | 50 | 156 | 3.5 | 9.6 | 0.00 | 0.00 | 0.00 | 40 | 1017.4 |
| 20260507173010 | 51 | 148 | 6.1 | 9.6 | 0.00 | 0.00 | 0.00 | 33 | 1017.2 |
| 20260507171510 | 51 | 162 | 7.0 | 9.6 | 0.00 | 0.00 | 0.00 | 33 | 1017.2 |
| 20260507170010 | 51 | 168 | 7.8 | 10.4 | 0.00 | 0.00 | 0.00 | 31 | 1017.2 |
| 20260507164509 | 51 | 142 | 6.1 | 10.4 | 0.00 | 0.00 | 0.00 | 33 | 1017.2 |
| 20260507163011 | 51 | 135 | 7.0 | 13.0 | 0.00 | 0.00 | 0.00 | 35 | 1017.2 |
| 20260507161510 | 52 | 112 | 5.2 | 11.3 | 0.00 | 0.00 | 0.00 | 36 | 1017.1 |
| 20260507160022 | 52 | 131 | 4.3 | 12.2 | 0.00 | 0.00 | 0.00 | 38 | 1017.2 |
| 20260507154513 | 52 | 97 | 6.1 | 9.6 | 0.00 | 0.00 | 0.00 | 40 | 1017.3 |
| 20260507153009 | 51 | 150 | 9.6 | 13.9 | 0.00 | 0.00 | 0.00 | 40 | 1017.2 |
| 20260507151509 | 51 | 187 | 9.6 | 14.8 | 0.00 | 0.00 | 0.00 | 38 | 1017.2 |
| 20260507150009 | 51 | 139 | 8.7 | 14.8 | 0.00 | 0.00 | 0.00 | 37 | 1017.1 |
| 20260507144512 | 52 | 153 | 7.8 | 13.0 | 0.00 | 0.00 | 0.00 | 39 | 1017.1 |
| 20260507143012 | 52 | 149 | 11.3 | 18.2 | 0.00 | 0.00 | 0.00 | 37 | 1017.1 |
| 20260507140009 | 52 | 158 | 10.4 | 14.8 | 0.00 | 0.00 | 0.00 | 39 | 1017.1 |
| 20260507134510 | 52 | 154 | 11.3 | 17.4 | 0.00 | 0.00 | 0.00 | 41 | 1017.1 |
| 20260507133012 | 52 | 132 | 6.1 | 14.8 | 0.00 | 0.00 | 0.00 | 40 | 1017.1 |
| 20260507131509 | 52 | 155 | 12.2 | 16.5 | 0.00 | 0.00 | 0.00 | 35 | 1017.1 |
| 20260507130022 | 52 | 153 | 8.7 | 16.5 | 0.00 | 0.00 | 0.00 | 37 | 1017.1 |
| 20260507123010 | 51 | 148 | 5.2 | 13.0 | 0.00 | 0.00 | 0.00 | 36 | 1016.9 |
| 20260507121509 | 52 | 138 | 7.8 | 12.2 | 0.00 | 0.00 | 0.00 | 36 | 1016.9 |
| 20260507120009 | 52 | 150 | 9.6 | 16.5 | 0.00 | 0.00 | 0.00 | 37 | 1016.9 |
| 20260507114510 | 52 | 167 | 7.0 | 13.0 | 0.00 | 0.00 | 0.00 | 36 | 1016.8 |
| 20260507113014 | 52 | 171 | 6.1 | 19.1 | 0.00 | 0.00 | 0.00 | 34 | 1016.9 |
| 20260507110024 | 51 | 168 | 7.8 | 11.3 | 0.00 | 0.00 | 0.00 | 30 | 1017.0 |
| 20260507104510 | 51 | 189 | 4.3 | 13.9 | 0.00 | 0.00 | 0.00 | 31 | 1016.8 |
| 20260507103009 | 52 | 159 | 4.3 | 10.4 | 0.00 | 0.00 | 0.00 | 29 | 1016.8 |
| 20260507101510 | 51 | 163 | 5.2 | 12.2 | 0.00 | 0.00 | 0.00 | 29 | 1016.7 |
| 20260507100018 | 51 | 198 | 3.5 | 10.4 | 0.00 | 0.00 | 0.00 | 29 | 1016.6 |
| 20260507094509 | 51 | 191 | 2.6 | 10.4 | 0.00 | 0.00 | 0.00 | 28 | 1016.5 |
| 20260507093013 | 53 | 172 | 2.6 | 10.4 | 0.00 | 0.00 | 0.00 | 26 | 1016.5 |
| 20260507091513 | 52 | 212 | 2.6 | 7.8 | 0.00 | 0.00 | 0.00 | 26 | 1016.5 |
| 20260507090009 | 52 | 209 | 1.7 | 7.0 | 0.00 | 0.00 | 0.00 | 26 | 1016.6 |
| 20260507084517 | 51 | 191 | 5.2 | 8.7 | 0.00 | 0.00 | 0.00 | 27 | 1016.6 |
| 20260507083009 | 52 | 154 | 0.9 | 6.1 | 0.00 | 0.00 | 0.00 | 27 | 1016.6 |
| 20260507081510 | 49 | 144 | 2.6 | 8.7 | 0.00 | 0.00 | 0.00 | 29 | 1016.5 |
| 20260507080009 | 51 | 190 | 0.9 | 5.2 | 0.00 | 0.00 | 0.00 | 28 | 1016.4 |